Location: Beddau
(51.5575°N, 3.3561°W)
Time: 02:54:41
(UTC+00:00)

Resurs 01 Rocket - Pass Details

Date: 03 March 2021
Orbit: 635 x 643 km, 98.0° (Epoch: 13 April)

Event Time Altitude Azimuth Distance (km) Brightness Sun altitude
Exits shadow 19:12:41 16° 72° (ENE) 1,664 3.2 -12.5°
Maximum altitude 19:13:34 17° 57° (ENE) 1,620 3.2 -12.6°
Drops below altitude 10° 19:16:23 10° 17° (NNE) 2,037 4.1 -13.0°
Sets 19:19:15 0° 358° (N) 2,952 5.2 -13.5°
